TimeCDT,TemperatureF,Dew PointF,Humidity,Sea Level PressureIn,VisibilityMPH,Wind Direction,Wind SpeedMPH,Gust SpeedMPH,PrecipitationIn,Events,Conditions,WindDirDegrees,DateUTC
12:58 AM,59.4,57.9,95,30.24,10.0,North,2.3,-,N/A,,Clear,10,2013-10-30 05:58:00
1:58 AM,58.5,57.7,97,30.24,9.0,NW,2.3,-,N/A,,Clear,320,2013-10-30 06:58:00
2:23 AM,59.0,59.0,100,30.22,2.0,Calm,Calm,-,N/A,,Clear,0,2013-10-30 07:23:00
2:28 AM,59.0,59.0,100,30.22,2.0,Calm,Calm,-,N/A,,Clear,0,2013-10-30 07:28:00
2:33 AM,59.0,57.2,94,30.22,1.0,SE,2.3,-,N/A,,Clear,130,2013-10-30 07:33:00
2:43 AM,57.2,57.2,100,30.23,2.0,Calm,Calm,-,N/A,,Clear,0,2013-10-30 07:43:00
2:48 AM,57.2,57.2,100,30.23,6.0,NNE,2.3,-,N/A,,Clear,30,2013-10-30 07:48:00
2:58 AM,58.3,57.9,99,30.24,10.0,North,2.3,-,N/A,,Clear,10,2013-10-30 07:58:00
3:58 AM,58.3,57.9,99,30.25,9.0,North,1.2,-,N/A,,Clear,350,2013-10-30 08:58:00
4:58 AM,58.1,57.7,99,30.24,10.0,ESE,2.3,-,N/A,,Clear,110,2013-10-30 09:58:00
5:58 AM,57.4,57.0,99,30.27,7.0,Calm,Calm,-,N/A,,Clear,0,2013-10-30 10:58:00
6:13 AM,55.4,55.4,100,30.26,2.5,Calm,Calm,-,N/A,,Clear,0,2013-10-30 11:13:00
6:18 AM,57.2,55.4,94,30.26,0.8,Calm,Calm,-,N/A,,Clear,0,2013-10-30 11:18:00
6:23 AM,57.2,55.4,94,30.26,0.8,Calm,Calm,-,N/A,,Clear,0,2013-10-30 11:23:00
6:28 AM,57.2,55.4,94,30.26,0.5,Calm,Calm,-,N/A,Fog,Fog,0,2013-10-30 11:28:00
6:33 AM,57.2,55.4,94,30.26,0.2,Calm,Calm,-,N/A,Fog,Fog,0,2013-10-30 11:33:00
6:38 AM,55.4,55.4,100,30.26,0.5,Calm,Calm,-,N/A,Fog,Fog,0,2013-10-30 11:38:00
6:43 AM,55.4,55.4,100,30.26,0.5,Calm,Calm,-,N/A,Fog,Fog,0,2013-10-30 11:43:00
6:48 AM,55.4,55.4,100,30.26,0.5,Calm,Calm,-,N/A,Fog,Fog,0,2013-10-30 11:48:00
6:53 AM,55.4,55.4,100,30.26,0.8,NNW,1.2,-,N/A,,Clear,330,2013-10-30 11:53:00
6:58 AM,56.3,56.1,99,30.27,0.2,NNW,1.2,-,N/A,Fog,Fog,340,2013-10-30 11:58:00
7:08 AM,55.4,55.4,100,30.26,0.5,NNW,2.3,-,N/A,Fog,Fog,330,2013-10-30 12:08:00
7:13 AM,55.4,55.4,100,30.26,1.2,NNW,2.3,-,N/A,,Clear,340,2013-10-30 12:13:00
7:18 AM,57.2,55.4,94,30.26,0.8,North,3.5,-,N/A,,Partly Cloudy,360,2013-10-30 12:18:00
7:23 AM,55.4,55.4,100,30.26,1.0,NNE,2.3,-,N/A,,Partly Cloudy,20,2013-10-30 12:23:00
7:28 AM,55.4,55.4,100,30.26,2.0,North,1.2,-,N/A,,Partly Cloudy,360,2013-10-30 12:28:00
7:33 AM,55.4,55.4,100,30.26,5.0,North,2.3,-,N/A,,Partly Cloudy,10,2013-10-30 12:33:00
7:58 AM,56.5,56.1,99,30.27,7.0,NNE,1.2,-,N/A,,Clear,30,2013-10-30 12:58:00
8:58 AM,62.6,60.8,94,30.29,10.0,Variable,2.3,-,N/A,,Clear,0,2013-10-30 13:58:00
9:58 AM,68.9,59.7,72,30.29,10.0,NNE,4.6,-,N/A,,Clear,20,2013-10-30 14:58:00
10:58 AM,74.8,60.4,61,30.27,10.0,Variable,5.8,-,N/A,,Clear,0,2013-10-30 15:58:00
11:58 AM,78.4,59.7,52,30.25,10.0,ENE,2.3,-,N/A,,Clear,60,2013-10-30 16:58:00
12:58 PM,81.0,55.8,42,30.23,10.0,South,8.1,-,N/A,,Clear,170,2013-10-30 17:58:00
1:58 PM,80.4,54.0,40,30.20,10.0,SE,4.6,-,N/A,,Clear,130,2013-10-30 18:58:00
2:58 PM,81.5,53.2,38,30.16,10.0,Variable,3.5,-,N/A,,Clear,0,2013-10-30 19:58:00
3:58 PM,80.2,53.6,40,30.16,10.0,SSE,6.9,-,N/A,,Clear,150,2013-10-30 20:58:00
4:58 PM,78.3,55.2,45,30.15,10.0,South,6.9,-,N/A,,Scattered Clouds,190,2013-10-30 21:58:00
5:58 PM,73.4,56.1,55,30.14,10.0,South,4.6,-,N/A,,Clear,180,2013-10-30 22:58:00
6:58 PM,69.1,55.9,63,30.15,10.0,SSW,4.6,-,N/A,,Clear,200,2013-10-30 23:58:00
7:58 PM,68.2,56.5,66,30.15,10.0,Calm,Calm,-,N/A,,Clear,0,2013-10-31 00:58:00
8:58 PM,63.9,57.0,78,30.15,10.0,Calm,Calm,-,N/A,,Clear,0,2013-10-31 01:58:00
9:58 PM,63.3,60.4,90,30.15,10.0,NNW,2.3,-,N/A,,Clear,340,2013-10-31 02:58:00
10:58 PM,60.4,58.5,93,30.14,10.0,North,-9999.0,-,N/A,,Clear,0,2013-10-31 03:58:00
11:58 PM,62.8,57.4,82,30.13,10.0,SW,2.3,-,N/A,,Clear,230,2013-10-31 04:58:00